This is the latest recevied weather packets stored in our database for station/object K5NAN. If no packets are shown the sender has not sent any weather packets the latest 10 day(s).
| Time | Temp. | Humidity | Pressure | Rain* | Wind** | Luminosity | Snow |
|---|---|---|---|---|---|---|---|
| 1777857001 | 21.67° C | 47% | 1014.3 hPa | 0 mm | - | 3 W/m² | - |
| 1777856698 | 21.67° C | 47% | 1014.4 hPa | 0 mm | - | 4 W/m² | - |
| 1777856394 | 21.67° C | 46% | 1014.4 hPa | 0 mm | - | 6 W/m² | - |
| 1777856091 | 22.22° C | 46% | 1014.4 hPa | 0 mm | - | 8 W/m² | - |
| 1777855788 | 22.78° C | 45% | 1014.2 hPa | 0 mm | - | 12 W/m² | - |
| 1777855486 | 22.78° C | 44% | 1014.1 hPa | 0 mm | - | 17 W/m² | - |
| 1777855183 | 23.33° C | 43% | 1014.1 hPa | 0 mm | - | 22 W/m² | - |
| 1777854879 | 23.89° C | 42% | 1014.2 hPa | 0 mm | - | 28 W/m² | - |
| 1777854576 | 23.89° C | 41% | 1014.2 hPa | 0 mm | - | 34 W/m² | - |
| 1777854273 | 23.89° C | 40% | 1014.3 hPa | 0 mm | - | 40 W/m² | - |
| 1777853970 | 24.44° C | 40% | 1014.3 hPa | 0 mm | - | 43 W/m² | - |
| 1777853667 | 24.44° C | 39% | 1014.3 hPa | 0 mm | - | 42 W/m² | - |
| 1777853364 | 24.44° C | 39% | 1014.5 hPa | 0 mm | - | 41 W/m² | - |
| 1777853061 | 25° C | 39% | 1014.3 hPa | 0 mm | - | 50 W/m² | - |
| 1777852758 | 25° C | 39% | 1014.4 hPa | 0 mm | - | 52 W/m² | - |
| 1777852456 | 25° C | 38% | 1014.6 hPa | 0 mm | - | 56 W/m² | - |
| 1777852154 | 25° C | 39% | 1014.4 hPa | 0 mm | - | 74 W/m² | - |
| 1777851851 | 25° C | 38% | 1014.5 hPa | 0 mm | - | 84 W/m² | - |
| 1777851549 | 25° C | 39% | 1014.5 hPa | 0 mm | - | 101 W/m² | - |
| 1777851245 | 25.56° C | 38% | 1014.4 hPa | 0 mm | - | 110 W/m² | - |
| 1777850941 | 25.56° C | 38% | 1014.7 hPa | 0 mm | - | 128 W/m² | - |
| 1777850639 | 25.56° C | 37% | 1014.6 hPa | 0 mm | - | 139 W/m² | - |
| 1777850336 | 25.56° C | 38% | 1014.5 hPa | 0 mm | - | 160 W/m² | - |
| 1777850033 | 25.56° C | 37% | 1014.7 hPa | 0 mm | - | 185 W/m² | - |
| 1777849729 | 25.56° C | 37% | 1014.7 hPa | 0 mm | - | 216 W/m² | - |
* Rain latest hour (hover to see other rain measurements)
** Current wind speed in m/s (hover to see current wind gust speed)